Miscellaneous Local Product
Issued by NWS Hastings, NE

Home | Current Version | Previous Version | Graphics & Text | Print | Product List | Glossary On
Versions: 1 2 3 4 5 6 7 8 9 10 11 12 13 14 15 16 17 18 19 20 21 22 23 24 25 26 27 28 29 30 31 32 33 34 35 36 37 38 39 40 41 42 43 44 45 46 47 48 49 50
160
AXUS43 KGID 171402
MISGRI

GID CWA HOURLY WEATHER ROUNDUP
NATIONAL WEATHER SERVICE HASTINGS NE
800 AM CST SUN DEC 17 2017

NOTE: "FAIR" INDICATES FEW OR NO CLOUDS BELOW 12,000 FEET WITH NO
SIGNIFICANT WEATHER AND/OR OBSTRUCTIONS TO VISIBILITY.

...SOUTH CENTRAL NEBRASKA...

CITY           SKY/WX    TMP DP  RH WIND       PRES   REMARKS
GRAND ISLAND   CLEAR     26  26 100 N10       30.01R WCI  16
KEARNEY        CLOUDY    26  25  96 NW9       30.03R WCI  17
HASTINGS       CLOUDY    25  22  88 N8        30.00R WCI  16
ORD            PTCLDY    31  29  92 NW9       30.00S WCI  23
YORK           CLOUDY    30  30 100 N7        29.99R WCI  23
AURORA         CLOUDY    29  27  94 CALM      30.00R
LEXINGTON      CLEAR     24  22  91 N6        30.03R WCI  17
HOLDREGE       CLOUDY    27  27 100 N9        30.02R WCI  17
HEBRON         CLOUDY    33  32  93 N7        30.00R WCI  27

...NEBRASKA PANHANDLE...

CITY           SKY/WX    TMP DP  RH WIND       PRES   REMARKS
CHADRON        CLOUDY    30  28  92 CALM      30.03S
ALLIANCE       CLOUDY    29  29 100 CALM      30.01S
SCOTTSBLUFF    CLOUDY    31  29  92 CALM      30.03S
SIDNEY         CLOUDY    30  29  96 NW3       30.02R

...WESTERN AND NORTH CENTRAL NEBRASKA...

CITY           SKY/WX    TMP DP  RH WIND       PRES   REMARKS
VALENTINE      CLOUDY    33  30  88 CALM      30.04S
AINSWORTH      CLOUDY    32  32 100 CALM      30.03S FOG
ONEILL         CLOUDY    28  28 100 NW6       30.04S FOG     WCI  22
BROKEN BOW     CLOUDY    33  30  88 N6        30.01R WCI  28
IMPERIAL       CLOUDY    33  33 100 N6        30.03R WCI  28
NORTH PLATTE   CLOUDY    35  32  88 CALM      30.03R
MCCOOK         CLOUDY    35  31  85 N7        30.04R WCI  29

...EASTERN NEBRASKA...

CITY           SKY/WX    TMP DP  RH WIND       PRES   REMARKS
NORFOLK        CLOUDY    30  27  88 N10       30.00R WCI  21
SO SIOUX CITY  CLOUDY    27  25  92 N6        30.04S WCI  20
TEKAMAH        CLOUDY    28  24  85 N12       30.02S WCI  18
COLUMBUS       CLOUDY    29  27  92 N10       30.00R WCI  20
ALBION         CLOUDY    31  28  88 N6        30.00R WCI  26
OMAHA EPPLEY   CLOUDY    30  23  75 N15       29.99F WCI  19
OFFUTT AFB     LGTSLEET  31  26  82 N6        29.98S WCI  25
MILLARD        CLOUDY    32  27  81 N3        29.98F
LINCOLN        LGT SNOW  31  28  89 N8        30.02R FOG     WCI  23
NEBRASKA CITY  MIX PCPN  33  33 100 N7        29.98S WCI  27
BEATRICE       CLOUDY    34  32  93 N5        29.98R WCI  30
FALLS CITY     CLOUDY    41  40  96 S7        29.98R

...NORTHERN KANSAS...

CITY           SKY/WX    TMP DP  RH WIND       PRES   REMARKS
GOODLAND       CLOUDY    33  31  92 N9        30.01R WCI  25
HILL CITY      CLOUDY    31  29  92 N21G26    30.01R WCI  18
NORTON         SUNNY     25  21  86 NW9       30.01S WCI  15
PHILLIPSBURG   MOCLDY    32  28  86 N9        30.02R WCI  24
SMITH CENTER   MOCLDY    30  27  86 N7        30.01R WCI  23
HAYS           CLOUDY    33  29  85 N13       29.98R WCI  24
RUSSELL        CLOUDY    32  29  88 NW12      29.96S WCI  23
CONCORDIA      CLOUDY    37  30  75 W5        29.98R WCI  33
SALINA         CLOUDY    44  42  93 S7        29.99R
TOPEKA         LGT RAIN  44  44 100 S8        30.02R FOG



USA.gov is the U.S. government's official web portal to all federal, state and local government web resources and services.